Year,Month,Day,Hour,Minute,Value (Times are PST for temperature in C)
2017,01,03,00,00,-6.40
2017,01,03,00,01,-6.40
2017,01,03,00,02,-6.40
2017,01,03,00,03,-6.50
2017,01,03,00,04,-6.50
2017,01,03,00,05,-6.50
2017,01,03,00,06,-6.60
2017,01,03,00,07,-6.60
2017,01,03,00,08,-6.60
2017,01,03,00,09,-6.60
2017,01,03,00,10,-6.60
2017,01,03,00,11,-6.60
2017,01,03,00,12,-6.70
2017,01,03,00,13,-6.70
2017,01,03,00,14,-6.70
2017,01,03,00,15,-6.70
2017,01,03,00,16,-6.70
2017,01,03,00,17,-6.70
2017,01,03,00,18,-6.80
2017,01,03,00,19,-6.80
2017,01,03,00,20,-6.80
2017,01,03,00,21,-6.80
2017,01,03,00,22,-6.70
2017,01,03,00,23,-6.70
2017,01,03,00,24,-6.70
2017,01,03,00,25,-6.60
2017,01,03,00,26,-6.60
2017,01,03,00,27,-6.70
2017,01,03,00,28,-6.70
2017,01,03,00,29,-6.70
2017,01,03,00,30,-6.70
2017,01,03,00,31,-6.70
2017,01,03,00,32,-6.70
2017,01,03,00,33,-6.70
2017,01,03,00,34,-6.70
2017,01,03,00,35,-6.70
2017,01,03,00,36,-6.70
2017,01,03,00,37,-6.70
2017,01,03,00,38,-6.70
2017,01,03,00,39,-6.70
2017,01,03,00,40,-6.70
2017,01,03,00,41,-6.70
2017,01,03,00,42,-6.70
2017,01,03,00,43,-6.60
2017,01,03,00,44,-6.60
2017,01,03,00,45,-6.60
2017,01,03,00,46,-6.60
2017,01,03,00,47,-6.60
2017,01,03,00,48,-6.60
2017,01,03,00,49,-6.60
2017,01,03,00,50,-6.60
2017,01,03,00,51,-6.60
2017,01,03,00,52,-6.60
2017,01,03,00,53,-6.60
2017,01,03,00,54,-6.60
2017,01,03,00,55,-6.60
2017,01,03,00,56,-6.60
2017,01,03,00,57,-6.60
2017,01,03,00,58,-6.60
2017,01,03,00,59,-6.70
2017,01,03,01,00,-6.70
2017,01,03,01,01,-6.70
2017,01,03,01,02,-6.70
2017,01,03,01,03,-6.70
2017,01,03,01,04,-6.70
2017,01,03,01,05,-6.70
2017,01,03,01,06,-6.70
2017,01,03,01,07,-6.80
2017,01,03,01,08,-6.80
2017,01,03,01,09,-6.80
2017,01,03,01,10,-6.80
2017,01,03,01,11,-6.80
2017,01,03,01,12,-6.80
2017,01,03,01,13,-6.80
2017,01,03,01,14,-6.80
2017,01,03,01,15,-6.80
2017,01,03,01,16,-6.80
2017,01,03,01,17,-6.80
2017,01,03,01,18,-6.80
2017,01,03,01,19,-6.80
2017,01,03,01,20,-6.80
2017,01,03,01,21,-6.80
2017,01,03,01,22,-6.80
2017,01,03,01,23,-6.80
2017,01,03,01,24,-6.80
2017,01,03,01,25,-6.80
2017,01,03,01,26,-6.80
2017,01,03,01,27,-6.80
2017,01,03,01,28,-6.80
2017,01,03,01,29,-6.80
2017,01,03,01,30,-6.90
2017,01,03,01,31,-6.90
2017,01,03,01,32,-6.90
2017,01,03,01,33,-7.00
2017,01,03,01,34,-7.00
2017,01,03,01,35,-7.00
2017,01,03,01,36,-7.10
2017,01,03,01,37,-7.10
2017,01,03,01,38,-7.10
2017,01,03,01,39,-7.10
2017,01,03,01,40,-7.10
2017,01,03,01,41,-7.00
2017,01,03,01,42,-7.00
2017,01,03,01,43,-6.90
2017,01,03,01,44,-6.80
2017,01,03,01,45,-6.80
2017,01,03,01,46,-6.70
2017,01,03,01,47,-6.70
2017,01,03,01,48,-6.60
2017,01,03,01,49,-6.60
2017,01,03,01,50,-6.50
2017,01,03,01,51,-6.50
2017,01,03,01,52,-6.50
2017,01,03,01,53,-6.40
2017,01,03,01,54,-6.40
2017,01,03,01,55,-6.30
2017,01,03,01,56,-6.30
2017,01,03,01,57,-6.30
2017,01,03,01,58,-6.20
2017,01,03,01,59,-6.10
2017,01,03,02,00,-6.10
2017,01,03,02,01,-6.10
2017,01,03,02,02,-6.10
2017,01,03,02,03,-6.10
2017,01,03,02,04,-6.10
2017,01,03,02,05,-6.10
2017,01,03,02,06,-6.10
2017,01,03,02,07,-6.10
2017,01,03,02,08,-6.10
2017,01,03,02,09,-6.10
2017,01,03,02,10,-6.20
2017,01,03,02,11,-6.20
2017,01,03,02,12,-6.30
2017,01,03,02,13,-6.30
2017,01,03,02,14,-6.30
2017,01,03,02,15,-6.30
2017,01,03,02,16,-6.40
2017,01,03,02,17,-6.40
2017,01,03,02,18,-6.40
2017,01,03,02,19,-6.50
2017,01,03,02,20,-6.50
2017,01,03,02,21,-6.60
2017,01,03,02,22,-6.60
2017,01,03,02,23,-6.60
2017,01,03,02,24,-6.60
2017,01,03,02,25,-6.60
2017,01,03,02,26,-6.60
2017,01,03,02,27,-6.60
2017,01,03,02,28,-6.60
2017,01,03,02,29,-6.60
2017,01,03,02,30,-6.60
2017,01,03,02,31,-6.70
2017,01,03,02,32,-6.70
2017,01,03,02,33,-6.60
2017,01,03,02,34,-6.60
2017,01,03,02,35,-6.60
2017,01,03,02,36,-6.60
2017,01,03,02,37,-6.60
2017,01,03,02,38,-6.60
2017,01,03,02,39,-6.60
2017,01,03,02,40,-6.60
2017,01,03,02,41,-6.60
2017,01,03,02,42,-6.60
2017,01,03,02,43,-6.60
2017,01,03,02,44,-6.60
2017,01,03,02,45,-6.60
2017,01,03,02,46,-6.60
2017,01,03,02,47,-6.60
2017,01,03,02,48,-6.60
2017,01,03,02,49,-6.60
2017,01,03,02,50,-6.60
2017,01,03,02,51,-6.60
2017,01,03,02,52,-6.60
2017,01,03,02,53,-6.50
2017,01,03,02,54,-6.50
2017,01,03,02,55,-6.40
2017,01,03,02,56,-6.40
2017,01,03,02,57,-6.40
2017,01,03,02,58,-6.40
2017,01,03,02,59,-6.40
2017,01,03,03,00,-6.30
2017,01,03,03,01,-6.30
2017,01,03,03,02,-6.30
2017,01,03,03,06,-6.30
2017,01,03,03,07,-6.40
2017,01,03,03,08,-6.40
2017,01,03,03,09,-6.40
2017,01,03,03,10,-6.40
2017,01,03,03,11,-6.40
2017,01,03,03,12,-6.40
2017,01,03,03,13,-6.40
2017,01,03,03,14,-6.40
2017,01,03,03,15,-6.40
2017,01,03,03,16,-6.40
2017,01,03,03,17,-6.40
2017,01,03,03,18,-6.40
2017,01,03,03,19,-6.40
2017,01,03,03,20,-6.40
2017,01,03,03,21,-6.40
2017,01,03,03,22,-6.40
2017,01,03,03,23,-6.40
2017,01,03,03,24,-6.40
2017,01,03,03,25,-6.50
2017,01,03,03,26,-6.50
2017,01,03,03,27,-6.50
2017,01,03,03,28,-6.50
2017,01,03,03,29,-6.60
2017,01,03,03,30,-6.60
2017,01,03,03,31,-6.60
2017,01,03,03,32,-6.60
2017,01,03,03,33,-6.60
2017,01,03,03,34,-6.50
2017,01,03,03,35,-6.50
2017,01,03,03,36,-6.50
2017,01,03,03,37,-6.50
2017,01,03,03,38,-6.50
2017,01,03,03,39,-6.50
2017,01,03,03,40,-6.50
2017,01,03,03,41,-6.50
2017,01,03,03,42,-6.60
2017,01,03,03,43,-6.60
2017,01,03,03,44,-6.70
2017,01,03,03,45,-6.70
2017,01,03,03,46,-6.70
2017,01,03,03,47,-6.70
2017,01,03,03,48,-6.80
2017,01,03,03,49,-6.80
2017,01,03,03,50,-6.80
2017,01,03,03,51,-6.80
2017,01,03,03,52,-6.90
2017,01,03,03,53,-6.90
2017,01,03,03,54,-6.90
2017,01,03,03,55,-7.00
2017,01,03,03,56,-7.00
2017,01,03,03,57,-7.00
2017,01,03,03,58,-7.00
2017,01,03,03,59,-7.00
2017,01,03,04,00,-7.00
2017,01,03,04,01,-6.90
2017,01,03,04,02,-6.90
2017,01,03,04,03,-6.90
2017,01,03,04,04,-6.90
2017,01,03,04,05,-6.90
2017,01,03,04,06,-6.90
2017,01,03,04,07,-6.90
2017,01,03,04,08,-6.90
2017,01,03,04,09,-6.80
2017,01,03,04,10,-6.80
2017,01,03,04,11,-6.80
2017,01,03,04,12,-6.80
2017,01,03,04,13,-6.80
2017,01,03,04,14,-6.80
2017,01,03,04,15,-6.80
2017,01,03,04,16,-6.80
2017,01,03,04,17,-6.80
2017,01,03,04,18,-6.80
2017,01,03,04,19,-6.80
2017,01,03,04,20,-6.80
2017,01,03,04,21,-6.80
2017,01,03,04,22,-6.80
2017,01,03,04,23,-6.80
2017,01,03,04,24,-6.80
2017,01,03,04,25,-6.80
2017,01,03,04,26,-6.80
2017,01,03,04,27,-6.80
2017,01,03,04,28,-6.80
2017,01,03,04,29,-6.80
2017,01,03,04,30,-6.80
2017,01,03,04,31,-6.80
2017,01,03,04,32,-6.80
2017,01,03,04,33,-6.80
2017,01,03,04,34,-6.90
2017,01,03,04,35,-6.90
2017,01,03,04,36,-6.90
2017,01,03,04,37,-6.90
2017,01,03,04,38,-6.90
2017,01,03,04,39,-6.90
2017,01,03,04,40,-6.90
2017,01,03,04,41,-6.90
2017,01,03,04,42,-6.90
2017,01,03,04,43,-6.90
2017,01,03,04,44,-7.00
2017,01,03,04,45,-7.00
2017,01,03,04,46,-7.00
2017,01,03,04,47,-7.00
2017,01,03,04,48,-7.00
2017,01,03,04,49,-7.00
2017,01,03,04,50,-7.00
2017,01,03,04,51,-7.00
2017,01,03,04,52,-7.00
2017,01,03,04,53,-7.00
2017,01,03,04,54,-7.00
2017,01,03,04,55,-7.00
2017,01,03,04,56,-7.00
2017,01,03,04,57,-7.00
2017,01,03,04,58,-7.00
2017,01,03,04,59,-7.00
2017,01,03,05,00,-7.00
2017,01,03,05,01,-7.00
2017,01,03,05,02,-7.00
2017,01,03,05,03,-7.00
2017,01,03,05,04,-7.00
2017,01,03,05,05,-7.00
2017,01,03,05,06,-6.90
2017,01,03,05,07,-6.90
2017,01,03,05,08,-6.90
2017,01,03,05,09,-6.90
2017,01,03,05,10,-6.90
2017,01,03,05,11,-6.80
2017,01,03,05,12,-6.80
2017,01,03,05,13,-6.80
2017,01,03,05,14,-6.80
2017,01,03,05,15,-6.80
2017,01,03,05,16,-6.80
2017,01,03,05,17,-6.80
2017,01,03,05,18,-6.80
2017,01,03,05,19,-6.80
2017,01,03,05,20,-6.80
2017,01,03,05,21,-6.80
2017,01,03,05,22,-6.80
2017,01,03,05,23,-6.80
2017,01,03,05,24,-6.80
2017,01,03,05,25,-6.80
2017,01,03,05,26,-6.80
2017,01,03,05,27,-6.80
2017,01,03,05,28,-6.80
2017,01,03,05,29,-6.80
2017,01,03,05,30,-6.80
2017,01,03,05,31,-6.80
2017,01,03,05,32,-6.80
2017,01,03,05,33,-6.80
2017,01,03,05,34,-6.90
2017,01,03,05,35,-6.80
2017,01,03,05,36,-6.80
2017,01,03,05,37,-6.80
2017,01,03,05,38,-6.80
2017,01,03,05,39,-6.80
2017,01,03,05,40,-6.80
2017,01,03,05,41,-6.80
2017,01,03,05,42,-6.80
2017,01,03,05,43,-6.80
2017,01,03,05,44,-6.80
2017,01,03,05,45,-6.80
2017,01,03,05,46,-6.80
2017,01,03,05,47,-6.80
2017,01,03,05,48,-6.80
2017,01,03,05,49,-6.80
2017,01,03,05,50,-6.80
2017,01,03,05,51,-6.80
2017,01,03,05,52,-6.80
2017,01,03,05,53,-6.80
2017,01,03,05,54,-6.80
2017,01,03,05,55,-6.80
2017,01,03,05,56,-6.90
2017,01,03,05,57,-6.90
2017,01,03,05,58,-6.90
2017,01,03,05,59,-7.00
2017,01,03,06,00,-7.00
2017,01,03,06,01,-7.10
2017,01,03,06,02,-7.10
2017,01,03,06,03,-7.10
2017,01,03,06,04,-7.10
2017,01,03,06,05,-7.20
2017,01,03,06,06,-7.20
2017,01,03,06,07,-7.20
2017,01,03,06,08,-7.30
2017,01,03,06,09,-7.30
2017,01,03,06,10,-7.30
2017,01,03,06,11,-7.30
2017,01,03,06,12,-7.30
2017,01,03,06,13,-7.30
2017,01,03,06,14,-7.30
2017,01,03,06,15,-7.20
2017,01,03,06,16,-7.20
2017,01,03,06,17,-7.20
2017,01,03,06,18,-7.20
2017,01,03,06,19,-7.20
2017,01,03,06,20,-7.30
2017,01,03,06,21,-7.30
2017,01,03,06,22,-7.30
2017,01,03,06,23,-7.30
2017,01,03,06,24,-7.30
2017,01,03,06,25,-7.20
2017,01,03,06,26,-7.20
2017,01,03,06,27,-7.20
2017,01,03,06,28,-7.20
2017,01,03,06,29,-7.20
2017,01,03,06,30,-7.20
2017,01,03,06,31,-7.20
2017,01,03,06,32,-7.20
2017,01,03,06,33,-7.20
2017,01,03,06,34,-7.20
2017,01,03,06,35,-7.30
2017,01,03,06,36,-7.30
2017,01,03,06,37,-7.40
2017,01,03,06,38,-7.40
2017,01,03,06,39,-7.50
2017,01,03,06,40,-7.50
2017,01,03,06,41,-7.60
2017,01,03,06,42,-7.60
2017,01,03,06,43,-7.60
2017,01,03,06,44,-7.60
2017,01,03,06,45,-7.50
2017,01,03,06,46,-7.40
2017,01,03,06,47,-7.40
2017,01,03,06,48,-7.30
2017,01,03,06,49,-7.30
2017,01,03,06,50,-7.30
2017,01,03,06,51,-7.40
2017,01,03,06,52,-7.40
2017,01,03,06,53,-7.40
2017,01,03,06,54,-7.30
2017,01,03,06,55,-7.30
2017,01,03,06,56,-7.20
2017,01,03,06,57,-7.20
2017,01,03,06,58,-7.20
2017,01,03,06,59,-7.20
2017,01,03,07,00,-7.30
2017,01,03,07,01,-7.30
2017,01,03,07,02,-7.30
2017,01,03,07,03,-7.30
2017,01,03,07,04,-7.40
2017,01,03,07,05,-7.40
2017,01,03,07,06,-7.50
2017,01,03,07,07,-7.60
2017,01,03,07,08,-7.60
2017,01,03,07,09,-7.70
2017,01,03,07,10,-7.70
2017,01,03,07,11,-7.70
2017,01,03,07,12,-7.80
2017,01,03,07,13,-7.80
2017,01,03,07,14,-7.80
2017,01,03,07,15,-7.90
2017,01,03,07,16,-7.90
2017,01,03,07,17,-7.80
2017,01,03,07,18,-7.80
2017,01,03,07,19,-7.80
2017,01,03,07,20,-7.70
2017,01,03,07,21,-7.70
2017,01,03,07,22,-7.60
2017,01,03,07,23,-7.50
2017,01,03,07,24,-7.40
2017,01,03,07,25,-7.40
2017,01,03,07,26,-7.40
2017,01,03,07,27,-7.40
2017,01,03,07,28,-7.50
2017,01,03,07,29,-7.50
2017,01,03,07,30,-7.60
2017,01,03,07,31,-7.60
2017,01,03,07,32,-7.50
2017,01,03,07,33,-7.50
2017,01,03,07,34,-7.50
2017,01,03,07,35,-7.60
2017,01,03,07,36,-7.60
2017,01,03,07,37,-7.50
2017,01,03,07,38,-7.60
2017,01,03,07,39,-7.60
2017,01,03,07,40,-7.60
2017,01,03,07,41,-7.50
2017,01,03,07,42,-7.50
2017,01,03,07,43,-7.50
2017,01,03,07,44,-7.60
2017,01,03,07,45,-7.60
2017,01,03,07,46,-7.70
2017,01,03,07,47,-7.70
2017,01,03,07,48,-7.70
2017,01,03,07,49,-7.70
2017,01,03,07,50,-7.80
2017,01,03,07,51,-7.90
2017,01,03,07,52,-7.90
2017,01,03,07,53,-7.90
2017,01,03,07,54,-8.00
2017,01,03,07,55,-8.00
2017,01,03,07,56,-8.10
2017,01,03,07,57,-8.10
2017,01,03,07,58,-8.10
2017,01,03,07,59,-8.10
2017,01,03,08,00,-8.10
2017,01,03,08,01,-8.10
2017,01,03,08,02,-8.10
2017,01,03,08,03,-8.00
2017,01,03,08,04,-8.00
2017,01,03,08,05,-8.00
2017,01,03,08,06,-8.00
2017,01,03,08,07,-7.90
2017,01,03,08,08,-7.90
2017,01,03,08,09,-7.90
2017,01,03,08,10,-7.90
2017,01,03,08,11,-7.90
2017,01,03,08,12,-7.90
2017,01,03,08,13,-7.90
2017,01,03,08,14,-7.90
2017,01,03,08,15,-8.00
2017,01,03,08,16,-8.00
2017,01,03,08,17,-8.00
2017,01,03,08,18,-8.00
2017,01,03,08,19,-8.00
2017,01,03,08,20,-8.00
2017,01,03,08,21,-8.00
2017,01,03,08,22,-7.90
2017,01,03,08,23,-7.90
2017,01,03,08,24,-7.80
2017,01,03,08,25,-7.70
2017,01,03,08,26,-7.70
2017,01,03,08,27,-7.70
2017,01,03,08,28,-7.60
2017,01,03,08,29,-7.60
2017,01,03,08,30,-7.50
2017,01,03,08,31,-7.50
2017,01,03,08,32,-7.50
2017,01,03,08,33,-7.50
2017,01,03,08,34,-7.50
2017,01,03,08,35,-7.50
2017,01,03,08,36,-7.60
2017,01,03,08,37,-7.60
2017,01,03,08,38,-7.60
2017,01,03,08,39,-7.50
2017,01,03,08,40,-7.50
2017,01,03,08,41,-7.50
2017,01,03,08,42,-7.50
2017,01,03,08,43,-7.40
2017,01,03,08,44,-7.40
2017,01,03,08,45,-7.40
2017,01,03,08,46,-7.40
2017,01,03,08,47,-7.30
2017,01,03,08,48,-7.30
2017,01,03,08,49,-7.30
2017,01,03,08,50,-7.30
2017,01,03,08,51,-7.30
2017,01,03,08,52,-7.30
2017,01,03,08,53,-7.30
2017,01,03,08,54,-7.20
2017,01,03,08,55,-7.20
2017,01,03,08,56,-7.20
2017,01,03,08,57,-7.20
2017,01,03,08,58,-7.10
2017,01,03,08,59,-7.10
2017,01,03,09,00,-7.00
2017,01,03,09,01,-7.00
2017,01,03,09,02,-7.00
2017,01,03,09,03,-6.90
2017,01,03,09,04,-6.90
2017,01,03,09,05,-6.90
2017,01,03,09,06,-6.80
2017,01,03,09,07,-6.80
2017,01,03,09,08,-6.80
2017,01,03,09,09,-6.80
2017,01,03,09,10,-6.80
2017,01,03,09,11,-6.80
2017,01,03,09,12,-6.70
2017,01,03,09,13,-6.70
2017,01,03,09,14,-6.70
2017,01,03,09,15,-6.70
2017,01,03,09,16,-6.70
2017,01,03,09,17,-6.70
2017,01,03,09,18,-6.70
2017,01,03,09,19,-6.70
2017,01,03,09,20,-6.70
2017,01,03,09,21,-6.60
2017,01,03,09,22,-6.60
2017,01,03,09,23,-6.50
2017,01,03,09,24,-6.50
2017,01,03,09,25,-6.40
2017,01,03,09,26,-6.40
2017,01,03,09,27,-6.40
2017,01,03,09,28,-6.30
2017,01,03,09,29,-6.30
2017,01,03,09,30,-6.20
2017,01,03,09,31,-6.20
2017,01,03,09,32,-6.20
2017,01,03,09,33,-6.20
2017,01,03,09,34,-6.10
2017,01,03,09,35,-6.10
2017,01,03,09,36,-6.00
2017,01,03,09,37,-5.90
2017,01,03,09,38,-5.90
2017,01,03,09,39,-5.90
2017,01,03,09,40,-5.80
2017,01,03,09,41,-5.80
2017,01,03,09,42,-5.80
2017,01,03,09,43,-5.70
2017,01,03,09,44,-5.70
2017,01,03,09,45,-5.70
2017,01,03,09,46,-5.60
2017,01,03,09,47,-5.60
2017,01,03,09,48,-5.50
2017,01,03,09,49,-5.50
2017,01,03,09,50,-5.40
2017,01,03,09,51,-5.40
2017,01,03,09,52,-5.40
2017,01,03,09,53,-5.30
2017,01,03,09,54,-5.30
2017,01,03,09,55,-5.20
2017,01,03,09,56,-5.20
2017,01,03,09,57,-5.10
2017,01,03,09,58,-5.00
2017,01,03,09,59,-4.90
2017,01,03,10,00,-4.80
2017,01,03,10,01,-4.80
2017,01,03,10,02,-4.70
2017,01,03,10,03,-4.60
2017,01,03,10,04,-4.50
2017,01,03,10,05,-4.50
2017,01,03,10,06,-4.40
2017,01,03,10,07,-4.30
2017,01,03,10,08,-4.30
2017,01,03,10,09,-4.20
2017,01,03,10,10,-4.10
2017,01,03,10,11,-4.00
2017,01,03,10,12,-3.90
2017,01,03,10,13,-3.70
2017,01,03,10,14,-3.50
2017,01,03,10,15,-3.30
2017,01,03,10,16,-3.20
2017,01,03,10,17,-2.90
2017,01,03,10,18,-2.70
2017,01,03,10,19,-2.60
2017,01,03,10,20,-2.40
2017,01,03,10,21,-2.30
2017,01,03,10,22,-2.10
2017,01,03,10,23,-2.00
2017,01,03,10,24,-1.80
2017,01,03,10,25,-1.70
2017,01,03,10,26,-1.50
2017,01,03,10,27,-1.40
2017,01,03,10,28,-1.30
2017,01,03,10,29,-1.20
2017,01,03,10,30,-1.10
2017,01,03,10,31,-1.00
2017,01,03,10,32,-0.80
2017,01,03,10,33,-0.70
2017,01,03,10,34,-0.60
2017,01,03,10,35,-0.60
2017,01,03,10,36,-0.50
2017,01,03,10,37,-0.40
2017,01,03,10,38,-0.30
2017,01,03,10,39,-0.30
2017,01,03,10,40,-0.20
2017,01,03,10,41,-0.20
2017,01,03,10,42,-0.10
2017,01,03,10,43,-0.10
2017,01,03,10,44,0.00
2017,01,03,10,45,0.10
2017,01,03,10,46,0.10
2017,01,03,10,47,0.20
2017,01,03,10,48,0.20
2017,01,03,10,49,0.20
2017,01,03,10,50,0.20
2017,01,03,10,51,0.20
2017,01,03,10,52,0.30
2017,01,03,10,53,0.30
2017,01,03,10,54,0.30
2017,01,03,10,55,0.30
2017,01,03,10,56,0.30
2017,01,03,10,57,0.30
2017,01,03,10,58,0.30
2017,01,03,10,59,0.30
2017,01,03,11,00,0.30
2017,01,03,11,01,0.30
2017,01,03,11,02,0.40
2017,01,03,11,03,0.40
2017,01,03,11,04,0.50
2017,01,03,11,05,0.50
2017,01,03,11,06,0.60
2017,01,03,11,07,0.60
2017,01,03,11,08,0.50
2017,01,03,11,09,0.50
2017,01,03,11,10,0.50
2017,01,03,11,11,0.40
2017,01,03,11,12,0.40
2017,01,03,11,13,0.40
2017,01,03,11,14,0.30
2017,01,03,11,15,0.30
2017,01,03,11,16,0.40
2017,01,03,11,17,0.40
2017,01,03,11,18,0.40
2017,01,03,11,19,0.40
2017,01,03,11,20,0.40
2017,01,03,11,21,0.30
2017,01,03,11,22,0.30
2017,01,03,11,23,0.30
2017,01,03,11,24,0.30
2017,01,03,11,25,0.40
2017,01,03,11,26,0.40
2017,01,03,11,27,0.40
2017,01,03,11,28,0.40
2017,01,03,11,29,0.40
2017,01,03,11,30,0.40
2017,01,03,11,31,0.40
2017,01,03,11,32,0.40
2017,01,03,11,33,0.40
2017,01,03,11,34,0.40
2017,01,03,11,35,0.40
2017,01,03,11,36,0.40
2017,01,03,11,37,0.50
2017,01,03,11,38,0.50
2017,01,03,11,39,0.40
2017,01,03,11,40,0.40
2017,01,03,11,41,0.40
2017,01,03,11,42,0.50
2017,01,03,11,43,0.60
2017,01,03,11,44,0.60
2017,01,03,11,45,0.70
2017,01,03,11,46,0.70
2017,01,03,11,47,0.70
2017,01,03,11,48,0.80
2017,01,03,11,49,0.80
2017,01,03,11,50,0.80
2017,01,03,11,51,0.80
2017,01,03,11,52,0.80
2017,01,03,11,53,0.80
2017,01,03,11,54,0.80
2017,01,03,11,55,0.80
2017,01,03,11,56,0.80
2017,01,03,11,57,0.80
2017,01,03,11,58,0.80
2017,01,03,11,59,0.80
2017,01,03,12,00,0.80
2017,01,03,12,01,0.80
2017,01,03,12,02,0.70
2017,01,03,12,03,0.70
2017,01,03,12,04,0.70
2017,01,03,12,05,0.70
2017,01,03,12,06,0.70
2017,01,03,12,07,0.70
2017,01,03,12,08,0.80
2017,01,03,12,09,0.80
2017,01,03,12,10,0.80
2017,01,03,12,11,0.90
2017,01,03,12,12,0.90
2017,01,03,12,13,0.90
2017,01,03,12,14,1.00
2017,01,03,12,15,1.10
2017,01,03,12,16,1.10
2017,01,03,12,17,1.10
2017,01,03,12,18,1.10
2017,01,03,12,19,1.10
2017,01,03,12,20,1.10
2017,01,03,12,21,1.00
2017,01,03,12,22,1.00
2017,01,03,12,23,0.90
2017,01,03,12,24,0.80
2017,01,03,12,25,0.80
2017,01,03,12,26,0.80
2017,01,03,12,27,0.80
2017,01,03,12,28,0.80
2017,01,03,12,29,0.80
2017,01,03,12,30,0.70
2017,01,03,12,31,0.70
2017,01,03,12,32,0.70
2017,01,03,12,33,0.80
2017,01,03,12,34,0.80
2017,01,03,12,35,0.90
2017,01,03,12,36,0.90
2017,01,03,12,37,0.90
2017,01,03,12,38,0.80
2017,01,03,12,39,0.80
2017,01,03,12,40,0.70
2017,01,03,12,41,0.70
2017,01,03,12,42,0.70
2017,01,03,12,43,0.70
2017,01,03,12,44,0.70
2017,01,03,12,45,0.80
2017,01,03,12,46,0.80
2017,01,03,12,47,0.80
2017,01,03,12,48,0.80
2017,01,03,12,49,0.70
2017,01,03,12,50,0.80
2017,01,03,12,51,0.80
2017,01,03,12,52,0.80
2017,01,03,12,53,0.80
2017,01,03,12,54,0.80
2017,01,03,12,55,0.90
2017,01,03,12,56,0.90
2017,01,03,12,57,0.90
2017,01,03,12,58,1.00
2017,01,03,12,59,1.00
2017,01,03,13,00,1.00
2017,01,03,13,01,0.90
2017,01,03,13,02,0.90
2017,01,03,13,03,1.00
2017,01,03,13,04,1.00
2017,01,03,13,05,1.10
2017,01,03,13,06,1.20
2017,01,03,13,07,1.20
2017,01,03,13,08,1.20
2017,01,03,13,09,1.20
2017,01,03,13,10,1.20
2017,01,03,13,11,1.20
2017,01,03,13,12,1.10
2017,01,03,13,13,1.00
2017,01,03,13,14,0.90
2017,01,03,13,15,0.90
2017,01,03,13,16,0.90
2017,01,03,13,17,0.90
2017,01,03,13,18,0.90
2017,01,03,13,19,0.90
2017,01,03,13,20,1.00
2017,01,03,13,21,1.10
2017,01,03,13,22,1.20
2017,01,03,13,23,1.30
2017,01,03,13,24,1.30
2017,01,03,13,25,1.20
2017,01,03,13,26,1.20
2017,01,03,13,27,1.10
2017,01,03,13,28,1.20
2017,01,03,13,29,1.30
2017,01,03,13,30,1.30
2017,01,03,13,31,1.40
2017,01,03,13,32,1.50
2017,01,03,13,33,1.50
2017,01,03,13,34,1.50
2017,01,03,13,35,1.50
2017,01,03,13,36,1.40
2017,01,03,13,37,1.40
2017,01,03,13,38,1.50
2017,01,03,13,39,1.50
2017,01,03,13,40,1.60
2017,01,03,13,41,1.60
2017,01,03,13,42,1.70
2017,01,03,13,43,1.70
2017,01,03,13,44,1.70
2017,01,03,13,45,1.70
2017,01,03,13,46,1.70
2017,01,03,13,47,1.70
2017,01,03,13,48,1.60
2017,01,03,13,49,1.50
2017,01,03,13,50,1.50
2017,01,03,13,51,1.40
2017,01,03,13,52,1.40
2017,01,03,13,53,1.30
2017,01,03,13,54,1.20
2017,01,03,13,55,1.20
2017,01,03,13,56,1.30
2017,01,03,13,57,1.30
2017,01,03,13,58,1.30
2017,01,03,13,59,1.30
2017,01,03,14,00,1.40
2017,01,03,14,01,1.40
2017,01,03,14,02,1.40
2017,01,03,14,03,1.30
2017,01,03,14,04,1.20
2017,01,03,14,05,1.10
2017,01,03,14,06,1.10
2017,01,03,14,07,1.20
2017,01,03,14,08,1.20
2017,01,03,14,09,1.30
2017,01,03,14,10,1.30
2017,01,03,14,11,1.40
2017,01,03,14,12,1.40
2017,01,03,14,13,1.40
2017,01,03,14,14,1.40
2017,01,03,14,15,1.40
2017,01,03,14,16,1.50
2017,01,03,14,17,1.40
2017,01,03,14,18,1.40
2017,01,03,14,19,1.30
2017,01,03,14,20,1.20
2017,01,03,14,21,1.10
2017,01,03,14,22,1.00
2017,01,03,14,23,1.00
2017,01,03,14,24,0.90
2017,01,03,14,25,0.90
2017,01,03,14,26,0.90
2017,01,03,14,27,0.90
2017,01,03,14,28,0.90
2017,01,03,14,29,0.90
2017,01,03,14,30,1.00
2017,01,03,14,31,1.00
2017,01,03,14,32,1.10
2017,01,03,14,33,1.10
2017,01,03,14,34,1.10
2017,01,03,14,35,1.00
2017,01,03,14,36,1.00
2017,01,03,14,37,0.90
2017,01,03,14,38,0.90
2017,01,03,14,39,0.80
2017,01,03,14,40,0.80
2017,01,03,14,41,0.80
2017,01,03,14,42,0.90
2017,01,03,14,43,0.90
2017,01,03,14,44,0.90
2017,01,03,14,45,1.00
2017,01,03,14,46,1.10
2017,01,03,14,47,1.20
2017,01,03,14,48,1.20
2017,01,03,14,49,1.20
2017,01,03,14,50,1.10
2017,01,03,14,51,1.10
2017,01,03,14,52,1.10
2017,01,03,14,53,1.10
2017,01,03,14,54,1.00
2017,01,03,14,55,1.00
2017,01,03,14,56,0.90
2017,01,03,14,57,0.80
2017,01,03,14,58,0.70
2017,01,03,14,59,0.60
2017,01,03,15,00,0.40
2017,01,03,15,01,0.20
2017,01,03,15,02,0.10
2017,01,03,15,03,-0.10
2017,01,03,15,04,-0.20
2017,01,03,15,05,-0.30
2017,01,03,15,06,-0.40
2017,01,03,15,07,-0.50
2017,01,03,15,08,-0.50
2017,01,03,15,09,-0.60
2017,01,03,15,10,-0.70
2017,01,03,15,11,-0.80
2017,01,03,15,12,-0.80
2017,01,03,15,13,-0.90
2017,01,03,15,14,-1.00
2017,01,03,15,15,-1.00
2017,01,03,15,16,-1.10
2017,01,03,15,17,-1.10
2017,01,03,15,18,-1.20
2017,01,03,15,19,-1.20
2017,01,03,15,20,-1.20
2017,01,03,15,21,-1.20
2017,01,03,15,22,-1.30
2017,01,03,15,23,-1.30
2017,01,03,15,24,-1.30
2017,01,03,15,25,-1.30
2017,01,03,15,26,-1.20
2017,01,03,15,27,-1.20
2017,01,03,15,28,-1.20
2017,01,03,15,29,-1.20
2017,01,03,15,30,-1.20
2017,01,03,15,31,-1.20
2017,01,03,15,32,-1.20
2017,01,03,15,33,-1.20
2017,01,03,15,34,-1.20
2017,01,03,15,35,-1.30
2017,01,03,15,36,-1.30
2017,01,03,15,37,-1.30
2017,01,03,15,38,-1.30
2017,01,03,15,39,-1.40
2017,01,03,15,40,-1.40
2017,01,03,15,41,-1.50
2017,01,03,15,42,-1.60
2017,01,03,15,43,-1.60
2017,01,03,15,44,-1.60
2017,01,03,15,45,-1.70
2017,01,03,15,46,-1.70
2017,01,03,15,47,-1.80
2017,01,03,15,48,-1.90
2017,01,03,15,49,-1.90
2017,01,03,15,50,-2.00
2017,01,03,15,51,-2.00
2017,01,03,15,52,-2.00
2017,01,03,15,53,-2.10
2017,01,03,15,54,-2.10
2017,01,03,15,55,-2.20
2017,01,03,15,56,-2.20
2017,01,03,15,57,-2.20
2017,01,03,15,58,-2.20
2017,01,03,15,59,-2.20
2017,01,03,16,00,-2.20
2017,01,03,16,01,-2.20
2017,01,03,16,02,-2.20
2017,01,03,16,03,-2.20
2017,01,03,16,04,-2.20
2017,01,03,16,05,-2.20
2017,01,03,16,06,-2.20
2017,01,03,16,07,-2.30
2017,01,03,16,08,-2.30
2017,01,03,16,09,-2.40
2017,01,03,16,10,-2.40
2017,01,03,16,11,-2.50
2017,01,03,16,12,-2.50
2017,01,03,16,13,-2.60
2017,01,03,16,14,-2.60
2017,01,03,16,15,-2.70
2017,01,03,16,16,-2.70
2017,01,03,16,17,-2.70
2017,01,03,16,18,-2.70
2017,01,03,16,19,-2.70
2017,01,03,16,20,-2.70
2017,01,03,16,21,-2.70
2017,01,03,16,22,-2.70
2017,01,03,16,23,-2.70
2017,01,03,16,24,-2.70
2017,01,03,16,25,-2.70
2017,01,03,16,26,-2.70
2017,01,03,16,27,-2.70
2017,01,03,16,28,-2.80
2017,01,03,16,29,-2.80
2017,01,03,16,30,-2.80
2017,01,03,16,31,-2.90
2017,01,03,16,32,-2.90
2017,01,03,16,33,-2.90
2017,01,03,16,34,-3.00
2017,01,03,16,35,-3.00
2017,01,03,16,36,-3.10
2017,01,03,16,37,-3.10
2017,01,03,16,38,-3.10
2017,01,03,16,39,-3.20
2017,01,03,16,40,-3.30
2017,01,03,16,41,-3.30
2017,01,03,16,42,-3.30
2017,01,03,16,43,-3.40
2017,01,03,16,44,-3.40
2017,01,03,16,45,-3.50
2017,01,03,16,46,-3.50
2017,01,03,16,47,-3.60
2017,01,03,16,48,-3.60
2017,01,03,16,49,-3.70
2017,01,03,16,50,-3.70
2017,01,03,16,51,-3.70
2017,01,03,16,52,-3.80
2017,01,03,16,53,-3.80
2017,01,03,16,54,-3.80
2017,01,03,16,55,-3.90
2017,01,03,16,56,-3.90
2017,01,03,16,57,-3.90
2017,01,03,16,58,-4.00
2017,01,03,16,59,-4.00
2017,01,03,17,00,-4.00
2017,01,03,17,01,-4.10
2017,01,03,17,02,-4.10
2017,01,03,17,03,-4.10
2017,01,03,17,04,-4.10
2017,01,03,17,05,-4.10
2017,01,03,17,06,-4.20
2017,01,03,17,07,-4.20
2017,01,03,17,08,-4.20
2017,01,03,17,09,-4.30
2017,01,03,17,10,-4.30
2017,01,03,17,11,-4.30
2017,01,03,17,12,-4.40
2017,01,03,17,13,-4.40
2017,01,03,17,14,-4.40
2017,01,03,17,15,-4.40
2017,01,03,17,16,-4.50
2017,01,03,17,17,-4.50
2017,01,03,17,18,-4.60
2017,01,03,17,19,-4.60
2017,01,03,17,20,-4.60
2017,01,03,17,21,-4.70
2017,01,03,17,22,-4.70
2017,01,03,17,23,-4.70
2017,01,03,17,24,-4.70
2017,01,03,17,25,-4.80
2017,01,03,17,26,-4.80
2017,01,03,17,27,-4.80
2017,01,03,17,28,-4.90
2017,01,03,17,29,-4.90
2017,01,03,17,30,-4.90
2017,01,03,17,31,-4.90
2017,01,03,17,32,-4.90
2017,01,03,17,33,-4.90